Regional Weather Roundup
Issued by NWS

Home | Current Version | Previous Version | Graphics & Text | Print | Product List | Glossary Off
Versions: 1 2 3 4 5 6 7 8 9 10 11 12 13 14 15 16 17 18 19 20 21 22 23 24 25 26 27 28 29 30 31 32 33 34 35 36 37 38 39 40 41 42 43 44 45 46 47 48 49 50

000
ASUS43 KDMX 260706
RWRIA

WEATHER ROUNDUP FOR IOWA
NATIONAL WEATHER SERVICE DES MOINES IA
200 AM CDT WED APR 26 2017

NOTE: "FAIR" INDICATES FEW OR NO CLOUDS BELOW 12,000 FEET WITH NO
SIGNIFICANT WEATHER AND/OR OBSTRUCTIONS TO VISIBILITY.

* - THESE STATIONS ARE NOT NWS STATIONS...THUS NOT UNDER NWS
QUALITY CONTROL.  THEY ALSO DO NOT REPORT WEATHER SUCH
AS PRECIPITATION OR FOG.

IAZ001>003-012>014-020>022-031>034-043>046-260800-
   NORTHWEST IOWA

CITY           SKY/WX    TMP DP  RH WIND       PRES   REMARKS
CARROLL *      CLOUDY    43  43 100 NW15G23   29.54R
DENISON *      CLOUDY    39  39 100 NW17      29.57S WCI  30
LE MARS *      CLOUDY    39  36  87 NW17      29.64R WCI  30
SHELDON *      CLOUDY    39  37  93 NW18G24   29.57R WCI  30
SIOUX CITY     CLOUDY    38  36  92 NW24G32   29.61F WCI  27
SPENCER        LGT RAIN  41  39  93 NW21      29.54S
STORM LAKE *   LGT RAIN  39  39 100 NW22      29.52S WCI  29
$$

IAZ055>058-069>071-079>083-090>094-260800-
   SOUTHWEST IOWA

CITY           SKY/WX    TMP DP  RH WIND       PRES   REMARKS
ATLANTIC *     CLOUDY    41  39  93 NW21G26   29.55S
CLARINDA *     CLOUDY    45  41  87 N18G24    29.56F
COUNCIL BLFS * CLOUDY    41  41 100 N15G29    29.58S
CRESTON *      CLOUDY    45  43  93 NW18      29.52F
HARLAN  *      CLOUDY    41  41 100 NW17G26   29.60R
LAMONI         HVY RAIN  46  45  96 NW14      29.47F FOG
RED OAK *      CLOUDY    43  39  87 NW16G24   29.56F
SHENANDOAH *   CLOUDY    43  39  87 N17G25    29.57F
$$

IAZ047>049-059>061-072>074-084-260800-
   CENTRAL IOWA

CITY           SKY/WX    TMP DP  RH WIND       PRES   REMARKS
AMES           CLOUDY    48  46  93 NW9       29.48S
ANKENY *       CLOUDY    48  45  87 NW10      29.48F
BOONE *        CLOUDY    46  46 100 NW7G14    29.49R
CHARITON *     LGT RAIN  46  46 100 NW10      29.46S
DES MOINES     LGT RAIN  48  45  89 NW13      29.47F
GRINNELL*      RAIN      50  48  91 W13       29.45F
KNOXVILLE *    CLOUDY    48  46  93 NW10G18   29.43F
MARSHALLTOWN   CLOUDY    51  49  92 W8        29.43F
NEWTON *       CLOUDY    50  46  87 NW9       29.44F
PELLA *        RAIN      50  48  95 NW12      29.46S
PERRY *        CLOUDY    46  43  90 NW9       29.52R
$$

IAZ004>006-015-016-023>025-035-036-260800-
   NORTH CENTRAL IOWA

CITY           SKY/WX    TMP DP  RH WIND       PRES   REMARKS
ALGONA *       LGT RAIN  45  45 100 NW17      29.48S
CLARION *      CLOUDY    46  46 100 NW15      29.46S
ESTHERVILLE    LGT RAIN  40  40 100 NW20      29.50F FOG     WCI  30
FORT DODGE *   CLOUDY    45  39  81 N6        29.49F
MASON CITY     CLOUDY    50  48  93 W10       29.44F
IOWA FALLS *   CLOUDY    51  48  92 W9        29.45F
$$

IAZ007>011-017>019-026>030-037>042-050>054-066-260800-
   NORTHEAST IOWA

CITY           SKY/WX    TMP DP  RH WIND       PRES   REMARKS
CEDAR RAPIDS   CLOUDY    59  57  93 SE3       29.40F
CHARLES CITY * CLOUDY    54  54 100 N7        29.41F
CLINTON *      CLOUDY    68  52  56 S13       29.43F
DECORAH *      CLOUDY    59  55  88 SE5       29.41F
DUBUQUE        CLOUDY    61  54  77 S10       29.44F
MONTICELLO *   CLOUDY    59  55  88 SE5       29.40F
OELWEIN *      CLOUDY    59  59 100 SE3       29.40F
WATERLOO       CLOUDY    57  52  83 NW5       29.39F
$$

IAZ064-065-067-068-078-260800-
   EAST CENTRAL IOWA

CITY           SKY/WX    TMP DP  RH WIND       PRES   REMARKS
DAVENPORT      LGT RAIN  68  52  56 SW14G23   29.44S
IOWA CITY      CLOUDY    65  54  67 S6        29.42F
MT. PLEASANT * CLOUDY    59  59  99 SE6       29.42F
MUSCATINE *    CLOUDY    61  57  88 SE5       29.42F
QUAD CITIES    CLOUDY    71  49  45 S10       29.42F
$$

IAZ062-063-075>077-085>089-095>099-260800-
   SOUTHEAST IOWA

CITY           SKY/WX    TMP DP  RH WIND       PRES   REMARKS
BURLINGTON     CLOUDY    64  57  78 CALM      29.43F
FAIRFIELD *    CLOUDY    61  54  77 NW7       29.41F
KEOKUK *       CLOUDY    61  59  94 SE6       29.43F
OTTUMWA        MOCLDY    54  52  93 NW12      29.44F
WASHINGTON *   CLOUDY    61  57  88 S7        29.42F
$$

ABBREVIATIONS USED IN REMARKS
   TC - TEMPERATURES IN CELSIUS
  WCI - WIND CHILL INDEX
   HX - HEAT INDEX
  VSB - VISIBILITY
$$





USA.gov is the U.S. government's official web portal to all federal, state and local government web resources and services.